Location: Banff
(51.1667°N, 115.5667°W)
Time: 14:22:49
(UTC+00:00)

Altair - Pass Details

Date: 29 November 2020
Orbit: 1501 x 1682 km, 47.2° (Epoch: 14 January)

Event Time Altitude Azimuth Distance (km) Brightness Sun altitude
Rises 02:27:58 0° 189° (S) 4,735 10.2 -25.5°
Reaches altitude 10° 02:32:07 10° 174° (S) 3,724 9.5 -26.1°
Enters shadow 02:36:26 19° 147° (SSE) 3,056 8.8 -26.8°
